Dewpoint
74 74 73 73 73 74 74 74 74 74 74 74 74 75 75 76 77 77 77 77 77 76 76 76 76 75 74 73 73 72 72 71 70 71 71 71 70 69 69 69 70 69
74 74 74 74 74 74 75 74 75 74 75 75 75 75 77 77 77 77 77 77 77 76 77 75 76 75 74 73 73 71 71 72 71 70 70 71 70 70 68 69 68 69
74 74 74 73 72 73 72 74 74 74 74 74 75 76 76 77 77 77 77 77 76 76 76 76 76 75 74 73 73 72 71 71 70 69 70 71 70 70 69 68 68 69
74 74 73 73 73 73 73 74 74 74 74 74 74 74 75 75 76 77 77 77 77 77 77 76 75 75 74 74 73 72 72 72 70 71 71 71 71 70 69 69 68 68
74 74 74 73 73 74 74 74 73 73 73 74 74 75 76 76 76 76 76 77 77 76 77 76 76 75 75 74 73 72 71 71 71 72 71 70 71 70 69 69 69 68
74 75 75 74 74 74 73 73 73 73 73 73 74 74 74 75 75 75 76 75 75 75 75 75 75 75 74 74 73 72 72 70 71 71 71 71 69 70 68 69 69 68
74 74 74 74 74 74 74 73 73 74 73 73 74 74 74 74 75 75 76 75 75 75 75 75 76 75 74 74 73 73 72 72 72 71 71 70 70 70 69 70 69 69
73 73 73 73 73 73 74 73 73 74 74 74 74 74 74 73 75 74 75 75 75 76 76 75 76 76 74 74 73 73 72 71 71 71 71 71 71 70 70 69 70 69
73 73 73 73 73 72 72 72 72 73 74 74 73 73 74 74 74 74 76 76 75 76 76 76 76 75 74 74 73 73 72 71 70 71 71 70 70 70 70 70 69 69
73 73 72 71 71 72 71 71 71 72 73 73 73 72 73 74 74 75 76 76 75 76 76 76 76 75 74 74 73 73 72 72 71 71 70 70 70 69 69 70 69 69
72 72 72 72 71 70 70 70 70 70 72 72 72 72 72 74 74 75 75 75 75 75 75 76 75 75 74 73 73 73 72 72 71 71 70 70 70 70 70 70 69 69
72 72 72 71 71 70 70 70 70 71 71 71 72 72 72 72 73 74 74 75 75 75 75 75 76 75 75 74 72 72 72 72 71 71 70 70 70 69 69 69 69 69
72 72 72 71 72 72 71 71 70 70 70 71 71 71 71 71 71 73 74 74 75 74 74 75 75 75 75 74 73 73 72 72 70 70 70 70 69 69 68 68 68 68
72 73 72 72 72 73 73 72 71 71 72 72 72 72 71 71 70 72 73 73 74 74 74 75 75 75 75 75 74 73 72 72 71 70 70 70 70 69 68 67 68 68
73 73 73 73 73 73 73 73 72 73 73 73 73 72 71 71 71 71 73 73 73 74 74 74 74 74 74 74 73 73 73 72 71 71 70 70 69 68 68 68 67 67
73 73 73 74 73 73 74 73 72 73 72 73 73 72 73 73 73 72 72 73 73 74 74 74 74 74 70 65 67 72 73 72 71 71 71 70 70 69 68 68 67 67
73 73 73 73 73 73 73 73 73 73 73 73 73 73 73 74 73 73 72 72 73 73 73 73 73 73 65 63 64 65 71 72 72 71 71 70 70 70 69 68 68 68
72 73 73 73 73 73 74 74 73 73 73 74 73 73 74 73 73 73 74 73 72 72 72 73 73 67 62 62 62 62 65 72 71 71 70 70 70 69 69 69 68 68
73 73 73 73 73 73 74 74 74 74 74 74 73 74 74 74 74 73 73 73 73 73 72 72 73 66 62 61 61 61 62 66 71 71 70 70 70 70 70 70 70 69
73 73 73 73 73 73 73 73 73 73 73 72 73 73 74 74 73 74 74 74 73 73 72 73 73 65 61 60 59 60 61 64 71 71 71 70 70 70 70 70 71 70
73 73 73 73 73 73 73 73 73 73 73 72 72 73 73 74 73 73 73 73 73 72 72 72 72 63 60 59 58 58 59 60 70 71 70 71 71 71 71 71 72 71
72 73 73 73 73 73 73 73 73 74 73 74 73 72 73 73 74 73 73 73 73 72 71 71 71 61 59 58 57 57 58 66 70 71 70 71 71 71 71 72 72 71
72 72 73 73 73 73 73 73 73 74 74 74 73 73 72 73 73 73 73 73 72 72 72 72 71 64 58 57 56 57 59 68 70 71 71 71 71 71 71 71 71 71
73 73 73 73 73 73 73 73 73 73 74 74 73 72 71 72 72 73 73 73 72 72 72 72 72 65 55 56 56 56 61 69 70 71 71 71 71 72 72 71 71 69
72 73 73 72 73 72 72 73 73 73 74 74 73 73 72 73 73 73 73 74 73 72 68 71 72 66 55 56 55 55 62 70 71 71 70 70 70 70 70 70 70 68
73 73 73 72 72 73 73 73 74 73 73 73 72 72 72 72 72 72 73 73 72 72 72 72 72 71 63 55 54 54 57 70 72 71 70 70 70 70 70 69 70 69